Wind_Speed
36 33 36 37 36 33 28 25 25 32 37 32 29 29 27 23 18 12 12 13 8 3 6 9 8 7 5 1 2 2 2 5 7 7 7 5 4 2 2 3 5 7 9 10 11 12 13 14 14
42 38 38 38 39 35 29 26 26 32 43 39 36 34 31 29 20 19 19 16 13 5 3 7 12 12 9 6 3 2 2 2 2 2 3 3 3 3 5 7 7 8 9 9 10 11 13 14 14
48 47 45 45 41 35 31 29 31 35 42 46 43 42 38 34 26 22 23 23 21 17 12 14 11 11 11 9 6 4 1 1 2 2 2 2 3 4 5 7 8 9 10 10 11 11 13 14 15
43 47 48 50 43 35 36 31 36 35 44 48 47 47 45 38 33 28 27 27 24 20 17 17 17 17 17 12 9 8 6 2 1 2 2 1 2 4 5 7 9 10 11 13 13 13 14 15 16
40 44 48 48 41 38 35 33 43 43 39 47 49 48 46 43 39 35 30 26 25 22 21 22 22 22 20 20 11 9 10 9 8 7 6 6 7 7 7 9 9 10 11 11 12 13 15 16 16
42 44 46 43 37 37 40 36 41 46 45 40 49 49 47 44 43 39 36 27 29 27 27 27 26 24 22 20 16 14 13 13 12 12 11 11 12 13 14 15 15 15 16 15 15 15 16 15 15
42 43 44 42 41 38 42 42 41 48 50 47 49 49 48 46 44 41 38 35 32 34 33 33 32 29 28 26 24 21 19 19 19 18 18 18 17 17 17 18 17 17 17 16 16 15 14 14 13
43 46 47 45 42 40 42 46 46 50 51 47 48 52 49 50 48 45 40 34 34 36 37 37 38 35 33 32 30 27 24 22 24 23 23 22 22 23 23 23 23 20 19 19 19 18 16 15 14
45 48 49 47 45 42 42 46 54 55 52 51 49 55 56 54 53 51 48 40 34 33 34 38 40 36 32 31 30 29 27 26 27 27 27 27 27 26 25 24 23 24 22 21 20 21 20 19 17
47 49 50 49 49 47 42 49 56 58 58 50 51 54 55 57 55 52 51 50 41 35 34 35 37 38 35 31 30 29 28 29 29 30 30 31 30 29 27 25 24 22 22 23 22 23 22 23 23
48 51 53 55 56 53 46 49 58 64 62 57 56 58 59 52 52 50 49 48 50 45 38 37 36 34 33 30 29 29 28 30 31 32 33 33 34 33 31 30 28 28 29 29 29 30 29 28 27
49 50 51 55 58 59 57 53 59 67 64 57 55 58 62 68 59 53 47 38 39 41 36 32 29 30 31 29 28 28 28 29 30 31 33 34 36 37 37 36 35 35 34 34 35 34 34 34 33
42 40 47 49 55 59 61 58 64 70 65 63 60 57 61 67 61 56 45 44 34 34 35 31 29 28 28 29 31 32 32 32 33 35 36 36 38 39 41 40 41 39 42 38 39 41 42 38 38
33 34 37 43 49 56 58 63 69 72 69 69 62 57 61 65 67 57 54 46 41 39 36 36 34 35 34 33 33 33 33 33 33 36 38 39 40 41 41 39 39 42 45 43 45 49 47 43 43
24 27 34 36 36 48 49 65 72 67 62 66 63 47 54 61 64 64 53 54 54 47 45 39 36 35 37 36 35 35 35 35 36 38 39 39 37 38 41 42 43 44 46 47 52 49 46 45 49
20 24 26 22 27 33 44 60 71 67 55 55 67 60 50 50 56 59 61 57 57 56 45 44 37 33 32 36 36 38 38 38 37 38 40 41 43 42 43 45 45 48 49 51 52 53 52 50 52
15 16 15 14 17 23 43 55 64 55 58 56 45 56 61 58 59 49 51 42 43 43 37 34 30 32 36 38 39 40 39 38 39 41 44 45 46 47 48 49 50 51 51 52 53 51 53 51 53
11 14 13 11 10 13 34 48 40 43 41 50 46 43 39 34 34 32 44 44 25 23 27 29 34 38 42 41 38 38 39 40 41 42 44 45 45 47 49 51 53 57 57 55 57 57 56 55 56
8 10 9 10 10 13 18 31 32 38 34 39 33 39 29 17 22 16 12 19 27 34 38 41 42 39 37 38 40 40 40 41 43 44 45 47 47 47 48 51 52 54 56 55 58 60 62 63 63
8 11 13 17 20 19 19 28 43 37 36 28 36 27 27 21 24 22 26 29 33 36 41 43 41 38 37 40 41 43 44 46 46 46 46 47 47 49 51 53 55 56 57 57 57 58 60 60 65
11 12 19 20 22 20 18 22 33 34 30 29 31 31 28 30 31 30 33 38 40 40 40 41 41 40 41 43 45 45 45 45 46 46 48 49 50 50 52 54 55 56 57 59 60 62 64 64 64
17 17 28 27 27 25 25 22 25 28 32 31 32 33 29 30 32 32 34 37 38 37 39 42 42 42 42 43 46 46 46 46 46 46 49 52 54 55 57 59 60 60 62 62 62 63 64 65 64
19 26 34 32 32 29 25 24 22 25 31 26 25 25 30 29 28 26 28 30 31 30 33 36 39 43 46 46 44 45 46 49 50 52 53 55 57 60 62 64 65 65 66 66 65 64 65 66 67
23 30 33 35 34 32 29 25 28 32 32 32 32 27 25 25 23 23 24 26 27 30 34 37 40 41 42 44 45 47 50 51 53 55 57 57 59 62 65 66 66 68 70 71 71 71 65 58 56
28 32 34 36 38 37 33 34 31 29 29 30 31 29 28 28 29 29 31 31 31 31 34 36 39 40 41 42 45 47 51 55 57 58 58 60 61 64 66 66 60 56 54 52 52 52 54 57 55
31 33 35 37 37 35 37 42 39 34 33 34 34 34 35 35 36 37 38 36 37 38 39 39 38 37 37 38 41 49 54 57 57 58 56 57 60 52 49 51 52 51 52 53 55 56 57 58 59
34 35 34 34 35 34 32 31 31 34 36 40 42 43 43 44 46 42 38 38 40 42 43 41 39 38 39 42 45 50 56 54 55 57 58 55 50 48 50 54 56 56 57 60 62 63 64 63 62
38 35 34 34 35 34 34 31 25 23 27 32 37 39 40 39 38 39 40 40 41 43 44 43 44 45 45 47 52 56 55 55 58 61 52 52 53 54 55 58 58 60 64 67 66 63 61 58 56
41 40 38 37 39 38 36 34 30 27 32 36 34 38 39 40 40 40 44 44 45 45 44 47 50 52 53 53 52 56 57 59 61 55 55 56 55 57 62 65 64 66 64 63 63 61 60 59 58
25 33 41 45 42 42 40 38 35 33 33 33 39 39 34 35 36 41 45 49 51 49 47 50 51 50 51 52 54 54 57 58 54 55 57 58 60 63 63 62 61 59 59 59 60 63 65 64 61
Wind_Direction
239 234 233 229 226 222 210 196 196 204 214 218 220 232 219 213 225 205 197 198 232 255 259 276 282 285 290 291 352 333 242 191 175 173 177 185 193 205 279 303 307 315 320 323 324 323 323 326 326
237 237 236 231 228 223 216 205 198 211 213 217 222 231 234 221 219 215 214 207 214 219 244 306 297 287 275 277 268 315 300 304 229 217 217 227 263 294 301 304 307 313 322 327 327 327 323 323 324
238 238 235 233 228 221 217 213 210 217 218 219 223 229 235 234 226 224 221 218 223 235 244 275 288 288 289 276 276 278 274 332 335 293 273 285 327 339 344 345 347 347 345 342 340 335 329 327 327
237 237 236 235 231 223 222 218 219 220 221 222 223 228 233 238 238 233 225 226 228 233 246 249 259 273 279 279 265 249 253 238 113 56 41 51 28 5 351 342 342 340 342 342 342 339 335 332 330
239 241 241 239 233 222 225 228 218 220 230 225 224 227 232 234 237 239 236 234 238 235 232 248 253 261 273 270 259 252 250 248 248 253 263 277 290 300 307 307 321 326 325 323 327 328 326 326 325
242 244 246 248 244 229 224 234 230 221 224 229 227 230 233 233 235 237 243 229 231 237 244 249 251 252 259 252 251 254 259 262 258 259 264 275 283 288 292 294 297 301 304 305 310 310 311 311 317
249 249 250 248 246 234 228 233 236 231 228 223 232 231 233 235 233 238 242 239 233 239 242 251 253 251 248 249 252 261 258 264 268 270 272 274 277 277 277 282 288 293 295 296 301 303 305 306 310
254 252 251 249 247 239 230 230 238 237 237 229 228 231 233 237 239 238 239 235 234 240 243 247 253 255 260 260 263 269 263 264 265 269 272 275 279 281 284 287 289 286 290 290 292 292 293 295 297
254 251 250 252 250 246 233 229 235 238 239 236 230 228 235 233 235 239 242 246 238 240 246 248 249 254 256 257 259 262 263 265 267 267 269 273 275 276 280 283 285 289 287 283 285 286 286 288 286
256 256 255 255 252 247 233 226 231 236 237 237 236 221 230 235 236 238 242 245 246 241 236 238 239 250 252 251 254 258 262 265 268 270 272 272 272 273 272 272 274 275 275 280 277 274 276 276 278
260 260 259 256 252 246 235 228 227 235 235 236 234 229 223 229 232 235 235 240 245 246 243 241 243 245 246 250 254 259 262 264 265 265 267 270 273 269 266 265 263 265 269 268 269 271 270 269 268
260 259 257 255 251 247 235 222 226 231 233 235 241 240 235 227 229 231 231 229 234 241 241 235 232 234 238 243 248 250 252 257 259 263 266 266 264 263 264 262 262 259 259 263 267 267 269 269 269
267 264 257 252 251 246 232 222 222 227 227 229 232 239 236 230 226 229 231 227 219 220 224 224 225 228 236 241 248 253 257 260 260 262 263 264 264 261 263 261 264 260 269 254 259 259 259 258 264
273 273 268 257 245 240 233 215 216 224 225 229 227 237 244 237 231 220 224 219 209 209 211 220 229 236 241 246 249 252 252 253 254 255 256 259 259 260 259 259 264 256 263 256 258 259 258 260 264
295 294 285 273 257 240 229 210 213 215 223 227 226 235 242 243 235 224 212 211 213 215 219 223 231 238 242 244 244 245 248 253 254 253 255 257 259 255 252 254 256 256 258 259 264 267 257 262 261
319 306 289 266 241 227 221 212 207 209 217 222 224 224 227 231 237 232 226 214 212 218 226 230 230 231 233 235 238 244 248 250 254 260 263 265 263 262 259 261 260 256 258 261 261 264 266 266 267
318 297 285 262 247 232 216 210 206 208 217 218 226 229 238 244 247 238 225 213 215 225 229 233 233 240 243 247 249 255 257 259 261 259 259 259 259 257 256 256 257 258 259 261 262 263 262 264 266
279 277 279 245 231 237 225 215 214 217 221 218 228 226 225 233 232 228 223 213 224 247 245 239 242 246 252 258 261 259 259 259 259 259 259 260 261 262 262 260 260 259 258 257 258 261 263 267 269
255 258 250 241 223 215 219 206 202 223 242 232 260 263 267 260 275 281 266 251 249 250 252 255 256 257 255 256 259 261 261 260 257 255 256 256 257 260 262 261 260 260 261 262 260 262 263 263 264
220 243 215 205 217 225 227 222 224 227 220 235 247 248 252 252 246 245 245 250 251 246 249 252 256 259 258 257 257 258 259 260 261 264 266 266 265 264 264 264 265 265 266 266 265 264 264 265 265
205 200 205 201 212 218 230 237 229 234 221 218 223 234 227 227 239 240 240 248 252 255 259 259 259 259 258 258 258 258 259 262 264 265 265 265 265 265 265 266 267 268 269 270 270 270 270 268 265
210 209 216 211 216 229 227 230 241 230 212 218 220 222 228 228 230 237 240 243 247 248 250 253 255 256 257 258 259 261 263 265 266 268 269 271 272 273 272 271 270 269 268 267 266 267 268 270 271
217 217 214 215 215 224 227 214 209 219 226 241 249 243 235 233 229 238 245 247 244 245 246 246 247 250 252 253 256 259 262 263 264 265 266 268 270 273 274 274 274 275 277 278 277 275 273 272 271
228 223 222 219 225 233 237 237 211 210 222 236 242 235 235 237 253 262 265 262 258 255 249 246 246 251 257 260 262 262 263 266 267 267 268 269 269 269 270 272 274 275 275 275 276 278 277 273 271
238 229 230 231 231 238 242 246 248 241 239 239 241 245 250 255 261 268 273 266 256 255 258 258 258 260 263 266 266 266 265 265 266 269 269 270 271 270 271 274 273 271 271 270 269 270 274 274 271
238 241 243 244 246 250 249 247 248 249 249 251 251 254 257 263 265 267 270 262 263 266 267 268 270 274 271 270 267 263 265 268 273 275 278 278 276 274 272 276 278 276 274 273 274 274 273 275 276
238 241 250 252 257 259 258 258 257 254 250 252 256 258 259 262 266 268 265 265 265 266 267 268 267 270 271 272 273 272 273 279 281 281 283 280 273 272 275 277 277 277 277 275 277 278 276 273 275
236 243 246 251 256 260 261 257 257 257 258 253 251 255 258 261 263 264 266 267 268 270 269 270 274 277 279 282 282 281 283 287 286 288 283 280 278 274 278 285 284 283 281 278 275 273 274 273 270
233 240 245 251 254 259 263 265 267 263 260 253 251 252 257 260 262 264 267 268 268 269 273 275 275 276 279 279 277 280 285 285 286 283 284 283 280 279 283 283 281 279 277 275 276 277 275 273 271
240 245 246 248 254 260 262 258 264 268 267 262 256 250 254 254 256 265 267 265 265 271 272 274 276 277 274 273 277 281 281 281 278 280 280 278 278 280 280 278 277 276 276 275 275 277 278 276 273
Height
5857 5860 5863 5867 5871 5873 5879 5885 5886 5887 5884 5887 5888 5888 5892 5894 5897 5901 5900 5901 5903 5905 5906 5907 5907 5908 5909 5909 5910 5911 5911 5911 5911 5912 5913 5914 5915 5915 5916 5917 5917 5918 5918 5919 5919 5919 5919 5919 5918
5851 5855 5858 5860 5864 5868 5877 5881 5883 5879 5879 5882 5884 5885 5887 5889 5893 5895 5897 5899 5901 5903 5904 5905 5907 5908 5909 5909 5910 5911 5911 5911 5912 5913 5913 5914 5915 5916 5916 5917 5917 5917 5918 5918 5918 5918 5918 5918 5918
5845 5848 5851 5852 5857 5866 5873 5876 5875 5872 5874 5876 5879 5881 5883 5885 5889 5891 5893 5895 5897 5901 5903 5904 5906 5907 5908 5909 5909 5910 5911 5911 5912 5913 5913 5913 5914 5915 5916 5916 5916 5917 5917 5917 5917 5918 5918 5918 5917
5840 5840 5843 5843 5854 5864 5867 5870 5870 5868 5867 5869 5873 5876 5878 5883 5887 5888 5889 5892 5895 5897 5900 5902 5903 5905 5907 5907 5908 5909 5910 5910 5911 5912 5913 5913 5913 5914 5914 5915 5915 5916 5916 5917 5917 5917 5917 5917 5917
5833 5833 5834 5838 5849 5860 5862 5860 5861 5864 5861 5864 5867 5871 5874 5878 5881 5883 5885 5888 5891 5894 5896 5899 5900 5902 5904 5906 5907 5908 5909 5909 5910 5910 5911 5912 5912 5913 5913 5913 5914 5914 5914 5915 5915 5916 5916 5916 5916
5825 5827 5828 5834 5845 5854 5856 5854 5854 5857 5857 5858 5862 5865 5869 5872 5875 5878 5881 5886 5887 5890 5892 5895 5897 5899 5901 5903 5904 5905 5906 5907 5908 5908 5909 5910 5911 5911 5912 5912 5912 5913 5912 5912 5913 5913 5913 5913 5913
5817 5820 5823 5828 5835 5844 5849 5848 5847 5848 5849 5854 5855 5859 5863 5865 5869 5873 5876 5882 5884 5885 5888 5890 5893 5895 5897 5899 5901 5903 5904 5904 5905 5906 5907 5907 5908 5908 5909 5910 5910 5910 5910 5910 5909 5909 5909 5909 5909
5810 5811 5814 5819 5825 5834 5839 5841 5838 5842 5840 5849 5851 5853 5856 5859 5863 5867 5869 5875 5879 5882 5883 5886 5889 5891 5894 5896 5898 5899 5900 5901 5901 5902 5903 5904 5904 5904 5905 5906 5907 5907 5907 5907 5906 5905 5905 5905 5906
5800 5802 5806 5811 5816 5824 5831 5834 5832 5834 5835 5841 5843 5846 5848 5850 5856 5861 5865 5867 5873 5877 5880 5882 5884 5886 5888 5890 5893 5894 5895 5896 5897 5898 5898 5899 5900 5900 5901 5901 5902 5902 5903 5903 5903 5902 5902 5902 5901
5791 5794 5797 5801 5805 5810 5819 5824 5823 5824 5827 5834 5833 5835 5843 5846 5849 5855 5859 5861 5866 5870 5873 5876 5878 5880 5883 5885 5887 5888 5889 5891 5891 5892 5893 5894 5895 5895 5896 5897 5897 5897 5897 5897 5897 5897 5897 5896 5896
5781 5785 5785 5786 5789 5797 5807 5814 5815 5812 5819 5823 5824 5826 5832 5838 5842 5846 5852 5855 5859 5863 5867 5869 5872 5874 5877 5878 5880 5882 5884 5885 5886 5886 5887 5888 5889 5889 5890 5890 5891 5891 5891 5891 5890 5891 5891 5891 5890
5769 5770 5770 5770 5773 5781 5789 5799 5804 5802 5809 5816 5820 5822 5824 5826 5832 5839 5845 5850 5854 5858 5860 5862 5865 5867 5869 5872 5873 5875 5876 5877 5878 5879 5881 5881 5882 5883 5883 5883 5884 5884 5884 5884 5885 5884 5884 5885 5885
5754 5754 5752 5755 5757 5761 5769 5787 5788 5789 5798 5802 5806 5811 5814 5817 5825 5833 5839 5844 5847 5851 5853 5855 5857 5859 5861 5864 5866 5867 5868 5869 5871 5872 5873 5873 5873 5874 5874 5875 5875 5876 5876 5876 5875 5876 5876 5875 5876
5741 5739 5738 5739 5742 5742 5750 5765 5767 5779 5786 5786 5800 5808 5807 5809 5814 5821 5829 5835 5838 5840 5845 5847 5850 5852 5854 5856 5857 5858 5860 5861 5862 5863 5864 5865 5866 5866 5866 5867 5867 5868 5866 5865 5865 5866 5866 5867 5868
5731 5729 5726 5728 5733 5733 5735 5743 5755 5768 5770 5777 5789 5800 5800 5804 5806 5811 5817 5824 5828 5833 5834 5839 5841 5845 5847 5848 5848 5850 5851 5853 5855 5855 5856 5857 5857 5857 5857 5858 5858 5857 5857 5858 5858 5858 5858 5858 5859
5727 5725 5724 5723 5722 5723 5725 5734 5747 5756 5760 5768 5776 5788 5784 5791 5792 5803 5809 5812 5818 5822 5826 5829 5832 5835 5838 5839 5841 5842 5843 5845 5847 5847 5847 5848 5848 5849 5849 5850 5850 5849 5849 5849 5849 5849 5849 5850 5850
5724 5725 5726 5723 5721 5722 5720 5727 5737 5748 5753 5761 5770 5780 5782 5788 5791 5799 5805 5807 5812 5815 5817 5821 5823 5825 5828 5829 5831 5834 5836 5838 5838 5838 5836 5835 5835 5836 5836 5838 5839 5839 5839 5839 5839 5838 5838 5838 5839
5723 5724 5725 5723 5723 5722 5723 5727 5741 5750 5747 5756 5763 5769 5774 5777 5784 5789 5794 5798 5802 5806 5810 5813 5815 5816 5818 5820 5822 5824 5826 5826 5827 5826 5826 5825 5825 5825 5825 5826 5826 5825 5825 5826 5827 5828 5829 5828 5830
5721 5722 5724 5725 5725 5724 5726 5735 5741 5746 5746 5755 5754 5758 5764 5768 5778 5782 5784 5791 5795 5797 5799 5801 5804 5808 5811 5812 5813 5813 5814 5815 5814 5813 5813 5813 5814 5814 5815 5816 5816 5813 5813 5815 5816 5816 5815 5816 5816
5717 5721 5723 5724 5725 5727 5728 5731 5735 5739 5747 5752 5757 5759 5764 5768 5774 5778 5782 5785 5787 5788 5789 5792 5794 5797 5798 5799 5800 5801 5801 5802 5803 5804 5805 5805 5805 5805 5804 5802 5801 5801 5801 5802 5802 5803 5804 5805 5805
5715 5721 5723 5724 5724 5725 5727 5730 5733 5737 5744 5748 5753 5757 5761 5765 5769 5772 5775 5777 5778 5781 5783 5786 5787 5788 5789 5790 5791 5791 5791 5792 5793 5794 5793 5793 5792 5792 5790 5791 5791 5792 5791 5791 5790 5789 5788 5789 5791
5713 5718 5721 5722 5723 5724 5726 5730 5733 5735 5739 5744 5748 5752 5757 5761 5765 5768 5769 5771 5772 5775 5776 5778 5779 5779 5780 5781 5781 5782 5783 5783 5782 5782 5781 5779 5779 5779 5779 5778 5778 5778 5778 5778 5778 5777 5777 5776 5779
5712 5713 5716 5719 5719 5721 5724 5727 5731 5735 5740 5745 5748 5750 5754 5756 5759 5761 5762 5765 5766 5767 5768 5768 5768 5770 5771 5772 5773 5774 5775 5774 5774 5772 5771 5769 5768 5766 5764 5761 5759 5759 5759 5760 5761 5762 5761 5762 5764
5708 5710 5713 5715 5717 5718 5722 5725 5728 5731 5735 5738 5740 5743 5746 5748 5751 5753 5755 5756 5758 5759 5760 5761 5761 5763 5763 5764 5763 5762 5761 5761 5760 5759 5758 5756 5755 5753 5749 5748 5748 5746 5744 5743 5743 5743 5743 5743 5744
5703 5706 5708 5711 5712 5715 5718 5719 5724 5727 5729 5732 5733 5736 5738 5740 5743 5745 5747 5747 5748 5750 5752 5754 5754 5754 5753 5753 5752 5751 5751 5749 5748 5747 5745 5743 5742 5739 5736 5735 5734 5732 5730 5728 5728 5728 5727 5727 5728
5697 5700 5703 5704 5706 5711 5712 5711 5717 5722 5724 5725 5727 5729 5731 5733 5734 5735 5737 5739 5741 5742 5742 5742 5743 5744 5744 5743 5742 5740 5737 5735 5734 5732 5731 5729 5727 5723 5721 5720 5719 5717 5717 5716 5714 5714 5713 5712 5711
5691 5694 5697 5699 5700 5702 5703 5706 5710 5713 5716 5718 5719 5720 5721 5722 5724 5725 5726 5729 5731 5733 5734 5735 5734 5734 5733 5732 5730 5727 5724 5724 5722 5719 5717 5714 5712 5710 5709 5708 5706 5704 5702 5700 5698 5698 5697 5697 5696
5685 5689 5691 5692 5693 5694 5695 5698 5703 5707 5707 5708 5708 5709 5711 5713 5716 5717 5718 5719 5720 5721 5722 5723 5724 5722 5721 5719 5717 5715 5713 5711 5707 5705 5701 5699 5697 5696 5694 5692 5690 5688 5686 5684 5683 5681 5679 5679 5679
5678 5680 5683 5686 5685 5687 5689 5692 5697 5700 5700 5700 5702 5703 5705 5707 5709 5711 5712 5713 5713 5713 5714 5713 5712 5711 5710 5708 5704 5702 5700 5696 5693 5690 5688 5686 5684 5682 5679 5676 5675 5673 5671 5667 5664 5663 5662 5662 5662
5671 5673 5676 5677 5680 5680 5682 5684 5688 5690 5692 5692 5692 5695 5697 5700 5701 5702 5702 5702 5702 5703 5702 5700 5699 5698 5695 5693 5692 5690 5687 5685 5683 5681 5678 5676 5673 5670 5667 5665 5662 5659 5655 5652 5649 5647 5643 5643 5644